Location: Pine Mountain Observatory
(43.7910°N, 120.9377°W)
Time: 16:34:23
(UTC-08:00)

Cosmos 1867 - Visible Passes

Search period start: 02 March 2015 00:00
Search period end: 12 March 2015 01:00
Orbit: 778 x 798 km, 65.0° (Epoch: 02 March)

Date Brightness Start Highest point End Pass type
(mag) Time Alt. Az. Time Alt. Az. Time Alt. Az.
02 Mar 3.9 18:43:38 10° SW 18:49:03 69° NW 18:54:31 10° NNE visible
02 Mar 6.1 20:30:10 10° WNW 20:33:43 17° NNW 20:37:09 10° N visible
03 Mar 3.7 18:11:58 10° SSW 18:17:25 90° E 18:22:55 10° NE visible
03 Mar 5.9 19:57:46 10° W 20:01:49 20° NW 20:05:48 10° NNE visible
04 Mar 5.6 19:25:29 10° W 19:29:57 25° NW 19:34:23 10° NNE visible
05 Mar 5.3 18:53:19 10° WSW 18:58:08 31° NW 19:02:56 10° NNE visible
06 Mar 5.0 18:21:17 10° WSW 18:26:22 39° NW 18:31:28 10° NNE visible
06 Mar 6.3 20:09:42 10° NW 20:11:36 12° NNW 20:13:22 10° N visible
07 Mar 6.2 19:36:52 10° WNW 19:39:37 14° NNW 19:42:15 10° N visible
08 Mar 6.1 20:04:15 10° WNW 20:07:41 16° NNW 20:10:59 10° N visible
09 Mar 5.9 19:31:49 10° W 19:35:46 19° NW 19:39:38 10° N visible
